SCP
0 0 0 0 0 0 -0 -0 -0 -0 -0 -0 -0 -0 0 0 0 0 0 0 0 0 0 0 0 0 0 0 0 0 0 0 0 0 0 0 0 0 0 0 0 0 0 0 0 0 0 0 0
0 0 0 0 0 0 -0 -0 -0 -0 -0 -0 -0 -0 0 0 0 0 0 0 0 0 0 0 0 0 0 0 0 0 0 0 0 0 0 0 0 0 0 0 0 0 0 0 0 0 0 0 0
0 0 0 0 0 -0 -0 -0 -0 -0 -0 -0 -0 0 0 0 0 0 0 0 0 0 0 0 0 0 0 0 0 0 0 0 0 0 0 0 0 0 0 0 0 0 0 0 0 0 0 0 0
0 0 0 0 0 0 -0 -0 -0 -0 -0 -0 -0 0 0 0 0 0 0 0 0 0 0 0 0 0 0 0 0 0 0 0 0 0 0 0 0 0 0 0 0 0 0 0 0 0 0 0 0
0 0 0 0 0 0 -0 -0 -0 -0 -0 -0 -0 0 0 0 0 0 0 0 0 0 0 0 0 0 0 0 0 0 0 0 0 0 0 0 0 0 0 0 0 0 0 0 0 0 0 0 0
0 0 0 0 0 0 0 0 0 -0 -0 -0 -0 0 0 0 0 0 0 0 0 0 0 0 0 0 0 0 0 0 0 0 0 0 0 0 0 0 0 0 0 0 0 0 0 0 0 0 0
0 0 0 0 0 0 0 0 0 -0 -0 -0 -0 0 0 0 0 0 0 0 0 0 0 0 0 0 0 0 0 0 0 0 0 0 0 0 0 0 0 0 0 0 0 0 0 0 0 0 0
0 0 0 0 0 0 0 0 0 0 -0 -0 -0 0 0 0 0 0 0 0 0 0 0 0 0 0 0 0 0 0 0 0 0 0 0 0 0 0 0 0 0 0 0 0 0 0 0 0 0
0 0 0 0 0 0 0 0 0 0 -0 -0 0 0 0 0 0 0 0 0 0 0 0 0 0 0 0 0 0 0 0 0 0 0 0 0 0 0 0 0 0 0 0 0 0 0 0 0 0
0 0 0 0 0 0 0 0 0 0 0 0 0 0 0 0 0 0 0 0 0 0 0 0 0 0 0 0 0 0 0 0 0 0 0 0 0 0 0 0 0 0 0 0 0 0 0 0 0
0 0 0 0 0 0 0 0 0 0 0 0 0 0 0 0 0 0 0 0 0 0 0 0 0 0 0 0 0 0 0 0 0 0 0 0 0 0 0 0 0 0 0 0 0 0 0 0 0
0 0 0 0 0 0 0 0 0 0 0 0 0 0 0 0 0 0 0 0 0 0 0 0 0 0 0 0 0 0 0 0 0 0 0 0 0 0 0 0 0 0 0 0 0 0 0 0 0
0 0 0 0 0 0 0 0 0 0 0 0 0 0 0 0 0 0 0 0 0 0 0 0 0 0 0 0 0 0 0 0 0 0 0 0 0 0 0 0 0 0 0 0 0 -0 0 0 0
0 0 0 0 0 0 0 0 0 0 0 0 0 0 0 0 0 0 0 0 0 0 0 0 0 0 0 0 0 0 0 0 0 0 0 0 0 0 0 0 0 0 0 0 0 0 0 0 0
0 0 0 0 0 0 0 0 0 0 0 0 0 0 0 0 0 0 0 0 0 0 0 0 0 -0 -0 -0 0 0 0 0 0 0 0 0 0 0 0 0 0 0 0 0 0 0 0 0 0
0 0 0 0 0 0 0 0 0 0 0 0 0 0 0 0 0 0 0 0 0 -0 -0 -0 0 -0 -0 -0 0 0 0 0 0 0 0 0 0 0 0 0 0 0 0 0 0 0 0 0 0
0 0 0 0 0 0 0 0 0 0 0 0 0 0 0 0 0 0 0 0 0 -0 -0 -0 -0 0 0 0 0 0 0 0 0 0 0 0 0 0 0 0 0 0 0 0 0 0 0 0 0
0 0 0 0 0 0 0 0 0 0 0 0 0 0 0 0 0 0 0 0 0 0 -0 -0 0 0 0 0 0 0 0 0 0 0 0 0 0 0 0 0 0 0 0 0 0 0 0 0 0
0 0 0 0 0 0 0 0 0 0 0 0 0 0 0 0 0 0 0 0 0 0 0 0 0 0 1 1 1 1 0 0 0 0 0 0 0 0 0 0 0 0 0 0 0 0 0 0 0
0 0 0 0 0 0 0 0 0 0 0 0 0 0 0 0 0 0 0 0 0 0 0 0 0 1 1 1 1 1 1 1 1 0 0 0 0 0 0 0 0 0 0 0 0 0 0 0 0
0 0 0 0 0 0 0 0 0 0 0 0 0 0 0 0 0 0 1 1 1 1 1 1 1 1 1 2 2 2 1 1 1 1 1 0 0 0 0 0 0 0 0 0 0 0 0 0 0
0 0 0 0 0 0 0 0 0 0 0 0 0 0 0 0 0 0 0 1 1 1 1 1 1 1 2 2 2 2 2 1 1 1 1 1 0 0 0 0 0 0 0 0 0 0 0 0 0
0 0 0 0 0 0 0 0 0 0 0 0 0 0 0 0 0 0 0 1 1 1 1 1 2 2 2 2 2 2 1 1 1 1 1 1 0 0 0 0 0 0 0 0 0 0 0 0 1
0 0 0 0 0 0 0 0 0 0 0 0 0 0 0 0 0 0 0 0 1 1 1 2 2 2 2 2 2 2 1 1 1 1 1 1 0 0 0 0 0 0 0 0 0 0 0 0 0
0 0 0 0 0 0 0 0 0 0 0 0 0 0 0 0 0 0 0 0 0 1 1 1 2 2 2 1 1 1 1 1 1 1 1 0 0 0 0 0 0 0 0 0 0 0 0 0 0
0 0 0 0 0 0 0 0 0 0 0 0 0 0 0 0 0 0 0 0 0 0 1 1 1 1 1 1 1 1 1 1 0 0 0 0 0 0 0 0 0 0 0 0 0 0 0 0 0
0 0 0 0 0 0 0 0 0 0 0 0 0 0 0 0 0 0 0 0 0 0 0 0 0 0 0 0 0 0 0 0 0 0 0 0 0 0 0 0 0 0 0 0 0 0 0 0 0
0 0 0 0 0 0 0 0 0 0 0 0 0 0 0 0 0 0 0 0 0 0 0 0 0 0 0 0 0 0 0 0 0 0 0 0 0 0 0 0 0 0 0 0 0 0 0 0 0
0 0 0 0 0 0 0 0 0 0 0 0 0 0 0 0 0 0 0 0 0 0 0 0 0 0 0 0 0 0 0 0 0 0 0 0 0 0 0 0 0 0 0 0 0 0 0 0 0
0 0 0 0 0 0 0 0 0 0 0 0 0 0 0 0 0 0 0 0 0 0 0 0 0 0 0 0 0 0 0 0 0 0 0 0 0 0 0 0 0 0 0 0 0 0 0 0 0
Wind_Speed
4 2 3 4 4 5 9 6 4 4 4 5 4 3 4 4 4 5 7 12 14 15 15 15 14 14 14 13 12 12 11 11 11 11 10 10 9 8 8 7 7 7 7 6 6 6 6 6 6
3 1 4 4 2 7 8 4 4 4 6 5 4 2 3 5 6 7 9 12 14 15 14 14 15 13 13 13 12 12 12 11 11 11 10 10 9 8 7 7 7 7 7 7 6 6 6 6 5
2 3 3 1 4 7 7 4 4 5 4 1 2 3 4 5 5 7 10 14 14 14 13 14 14 13 13 12 12 12 12 12 12 11 10 9 9 8 7 7 7 7 7 7 7 6 6 5 5
3 3 3 2 7 5 3 2 2 5 3 1 1 4 5 5 4 8 13 14 14 13 12 14 14 13 12 12 12 12 12 12 12 11 10 9 8 8 7 7 7 7 8 8 8 7 7 6 5
3 3 2 5 5 4 2 1 3 3 1 1 0 3 6 5 6 11 13 13 14 14 12 14 14 13 12 12 12 11 12 12 12 11 10 9 8 7 7 7 7 7 8 8 8 8 8 7 7
3 3 2 4 5 3 2 1 4 3 1 2 1 3 6 6 8 12 12 11 12 13 12 13 14 12 12 12 12 12 12 12 11 11 11 9 8 7 7 6 7 7 7 7 7 7 7 7 7
3 2 2 4 4 4 3 1 2 1 1 1 0 2 6 8 9 11 11 10 11 12 12 11 14 13 13 12 12 12 12 12 11 11 10 9 8 8 7 6 6 6 6 7 7 6 6 6 6
3 2 3 4 4 3 3 1 0 2 1 3 2 1 4 11 11 11 10 10 10 11 12 11 11 12 13 13 13 12 12 12 11 11 11 10 9 8 7 8 7 6 6 6 6 5 5 5 5
4 4 3 2 2 3 2 1 2 1 3 3 1 3 5 14 14 12 11 10 10 10 10 11 11 10 10 10 12 12 12 11 11 11 11 11 9 9 9 7 7 6 6 6 5 5 4 4 6
3 3 1 2 2 2 2 1 1 3 3 4 4 4 9 15 15 14 13 13 13 12 11 10 10 10 10 7 9 9 9 10 10 9 11 8 6 4 3 11 5 6 6 6 5 4 6 8 6
2 2 2 2 2 2 2 1 1 3 2 1 2 7 13 14 15 14 13 12 12 12 11 10 10 10 9 7 7 6 5 6 8 9 9 6 6 5 5 6 8 7 8 7 7 8 5 4 2
1 1 1 2 2 2 3 2 2 2 4 6 5 5 14 16 16 14 13 12 11 11 11 11 11 10 10 8 6 6 5 5 6 7 9 6 4 4 4 4 5 5 4 3 4 2 4 3 4
2 0 1 2 3 3 3 3 3 2 6 7 4 7 14 15 15 13 12 11 11 11 11 11 11 11 10 8 6 6 6 6 7 6 7 7 5 6 5 5 4 5 4 5 3 4 4 2 2
2 3 3 3 3 1 3 2 2 4 8 6 3 4 10 12 12 12 12 11 12 11 12 11 12 11 10 9 8 7 6 6 6 6 8 8 6 5 5 5 5 5 5 4 4 3 3 3 2
3 5 4 2 2 1 4 3 3 7 7 6 4 1 4 7 9 11 11 11 11 11 11 11 11 12 12 11 10 6 6 7 6 6 8 9 7 7 6 5 6 6 6 6 4 3 2 2 2
4 6 6 2 1 1 5 4 7 7 6 6 6 4 3 4 8 9 9 10 10 10 11 11 10 12 12 10 9 7 7 7 6 6 7 9 9 8 6 5 5 6 6 5 4 3 4 4 4
5 6 5 2 1 2 4 3 6 7 6 6 6 6 5 4 5 7 8 10 10 10 11 12 13 13 12 11 9 8 7 7 7 6 7 8 9 9 7 5 5 7 6 5 5 5 4 4 3
5 6 6 5 1 4 6 4 3 6 6 7 7 7 7 7 7 7 8 10 11 12 13 13 13 13 12 10 9 7 7 7 7 6 7 9 8 9 7 5 7 6 6 6 6 6 4 3 4
6 8 9 6 3 6 7 6 1 4 6 7 8 8 9 10 9 8 8 8 11 13 14 14 14 14 11 9 9 8 8 7 7 7 8 9 10 9 8 6 7 6 6 8 9 7 7 6 5
6 8 8 6 4 7 9 8 2 4 6 8 9 10 11 12 12 11 10 8 9 12 15 16 16 15 13 10 8 7 7 6 5 5 7 9 10 10 8 9 7 7 7 8 8 7 6 5 5
5 6 9 11 9 8 10 11 8 5 3 6 8 10 12 13 14 14 14 12 10 10 13 12 14 14 13 11 7 5 4 3 4 4 5 7 9 9 9 10 8 8 8 7 9 9 9 7 6
6 8 10 12 12 10 9 11 7 4 2 6 10 12 13 14 14 14 14 14 12 10 9 10 10 11 12 11 9 8 5 3 2 1 2 5 7 8 9 9 9 9 8 8 9 10 8 8 7
9 11 12 12 13 15 12 13 6 3 2 8 12 13 14 14 14 14 14 14 12 9 6 4 5 7 9 10 10 8 4 2 2 0 2 3 5 7 8 8 8 8 7 8 8 8 9 8 9
11 12 12 10 10 13 12 12 4 5 8 11 13 14 14 14 14 13 13 11 10 8 4 2 4 6 8 10 9 8 8 5 3 1 2 3 3 4 6 7 7 7 6 7 7 7 9 9 9
11 11 7 6 7 7 5 6 6 8 9 12 14 15 14 13 13 13 12 11 10 9 7 6 8 9 8 9 9 7 7 6 4 2 2 3 3 4 5 6 6 5 6 6 6 6 7 9 9
9 9 7 7 8 8 5 2 6 8 10 12 13 14 14 14 13 12 10 8 7 8 8 8 9 10 9 9 7 7 6 4 2 1 2 3 3 3 4 5 5 5 5 5 5 5 6 7 8
9 7 7 8 10 9 4 3 3 12 16 17 16 16 15 14 12 10 8 7 7 8 8 8 9 10 10 8 7 6 5 3 2 2 3 3 3 3 4 5 5 5 4 5 5 4 6 6 7
8 8 6 5 6 6 3 3 7 16 18 18 18 17 16 13 10 8 7 6 6 7 7 8 8 9 8 6 5 4 2 2 1 3 4 4 4 4 5 5 4 5 5 4 4 4 4 5 6
9 7 6 5 4 5 4 4 8 13 15 16 16 15 14 12 9 8 7 7 6 6 6 7 6 7 6 5 4 2 1 0 2 3 3 3 4 5 5 4 4 4 4 4 4 4 4 6 6
7 7 6 5 4 4 3 3 8 12 12 14 15 15 13 11 10 9 9 8 8 7 6 6 5 5 4 3 2 1 1 2 3 3 3 4 4 4 4 4 4 3 3 3 3 3 4 5 5
Wind_Direction
233 216 221 235 216 98 81 83 89 99 81 74 67 47 31 23 351 45 109 152 146 147 145 149 150 148 148 149 147 145 142 138 135 132 129 125 121 117 113 106 99 96 95 97 103 108 108 110 116
299 238 243 246 136 98 88 87 90 74 98 111 98 72 64 69 51 95 135 149 152 150 151 149 148 150 150 151 151 149 146 143 141 138 134 132 129 124 118 110 101 96 91 89 93 100 104 105 110
261 253 273 193 81 75 85 79 84 107 119 153 93 55 38 62 98 120 137 151 156 153 152 142 152 152 153 154 154 154 152 149 147 144 141 138 134 130 123 116 106 97 90 85 86 92 98 102 108
260 240 237 131 96 75 53 69 129 148 154 117 107 98 83 67 104 121 139 154 156 157 155 147 157 155 157 157 157 157 156 155 153 150 147 143 141 136 130 124 114 103 92 84 81 83 87 88 93
257 263 169 123 101 88 58 359 188 188 108 94 25 84 101 98 110 132 147 156 160 161 159 154 161 161 161 161 162 161 161 160 159 156 152 149 146 141 134 128 118 108 97 86 80 79 78 77 79
257 256 182 131 113 113 98 137 194 215 105 139 158 98 98 122 143 147 151 161 164 163 163 158 161 167 167 166 167 166 165 165 164 162 157 154 150 144 138 131 122 112 101 91 84 80 76 75 78
289 262 171 140 143 133 81 45 203 213 197 132 128 95 122 144 148 154 156 161 164 166 168 169 168 172 173 173 172 171 170 170 168 165 162 157 151 147 145 139 131 120 110 101 91 85 79 76 80
309 251 180 176 175 126 77 136 70 273 82 102 212 359 138 152 154 158 158 162 169 174 175 177 179 176 176 175 177 177 176 175 172 168 166 160 155 154 153 164 140 136 125 112 104 99 94 87 86
277 246 213 184 197 116 71 147 113 169 149 160 172 25 97 143 157 163 164 170 175 182 183 184 182 181 181 175 168 179 179 178 177 173 168 177 182 169 173 134 136 147 134 122 117 113 115 134 124
268 259 47 42 360 39 32 16 120 195 197 184 162 128 139 156 170 176 179 180 181 185 189 189 190 182 184 180 172 184 181 179 190 182 176 191 180 164 147 119 158 151 140 139 126 138 181 219 163
285 328 31 58 18 338 330 7 309 266 245 297 235 172 166 175 183 188 190 189 187 187 188 194 195 191 187 183 185 183 181 182 191 185 178 190 174 167 176 162 167 169 178 169 153 195 184 179 129
278 37 351 18 19 326 322 319 294 284 335 339 305 206 182 189 192 195 195 191 188 192 192 194 198 194 195 191 188 189 184 186 186 191 187 183 187 191 172 189 171 170 177 165 191 185 156 168 169
248 334 2 330 308 297 287 276 285 325 343 323 296 204 195 198 198 198 199 192 193 192 196 197 199 201 195 195 195 199 195 190 189 189 196 189 188 193 174 186 179 195 174 173 189 201 158 178 139
344 306 298 298 294 287 292 281 249 27 352 348 329 212 206 207 207 201 201 201 200 197 199 194 200 201 202 194 199 202 197 191 202 189 204 196 191 196 185 193 185 193 188 184 195 190 184 201 176
277 272 254 238 266 273 285 227 67 19 354 6 357 307 238 224 219 221 213 213 211 205 203 196 201 201 203 204 202 199 202 195 199 196 208 201 196 197 197 197 189 190 191 192 201 179 210 201 180
252 250 247 168 269 258 269 248 67 15 7 20 13 5 316 260 247 238 236 232 227 219 215 201 198 206 203 204 203 200 202 200 201 199 209 210 203 204 198 200 200 196 194 199 192 211 203 189 196
232 257 266 234 180 284 272 277 61 23 22 26 17 5 348 320 291 277 265 252 244 235 225 214 206 207 203 201 204 206 202 200 205 203 204 213 214 211 201 205 205 195 202 206 206 208 212 200 194
287 281 273 272 340 287 269 270 56 38 37 32 21 10 1 349 339 323 303 282 257 241 233 223 213 210 202 198 204 200 208 204 207 208 208 215 221 223 216 207 213 204 206 213 219 209 216 216 204
299 285 282 292 321 288 272 272 69 58 45 33 22 12 4 356 345 338 318 293 269 247 236 229 217 209 201 193 197 196 202 204 205 209 212 213 221 226 226 222 217 213 217 219 222 215 209 210 208
291 288 292 296 314 287 275 270 154 96 61 34 18 8 3 353 348 348 334 313 284 259 242 233 221 210 201 193 191 194 196 203 204 208 215 219 224 225 228 228 223 219 222 226 222 213 214 208 208
311 323 318 307 302 263 270 256 197 157 99 42 22 8 2 355 346 344 339 329 307 277 254 239 225 209 198 184 174 167 165 168 181 202 214 222 227 229 231 236 232 228 224 223 221 214 212 208 211
317 350 314 298 284 270 258 272 218 167 160 26 11 4 358 353 347 343 339 335 322 300 274 250 225 207 189 174 166 166 167 177 195 205 219 225 226 230 232 236 235 232 229 227 221 215 217 213 207
338 320 299 288 278 273 254 259 235 124 14 6 2 357 354 351 347 343 342 339 333 322 299 260 212 192 174 164 158 153 142 133 87 64 241 235 231 234 232 232 232 233 230 231 225 217 219 219 217
328 305 281 259 262 259 258 255 243 53 5 351 350 350 350 348 346 346 348 349 350 352 1 57 122 132 138 142 142 143 138 132 128 183 239 232 222 231 228 225 225 227 228 230 227 223 221 227 228
344 330 300 269 245 265 297 267 65 40 8 352 345 345 346 346 347 349 352 359 8 17 37 68 95 103 112 118 118 127 129 132 150 190 219 229 215 212 208 210 217 219 224 227 224 225 226 226 231
347 339 325 305 302 309 301 275 79 24 4 354 350 348 347 349 349 350 358 6 19 33 47 66 84 90 93 102 108 106 106 110 124 201 227 226 221 210 195 196 201 204 212 215 215 230 228 232 231
344 353 334 295 288 281 269 93 73 4 358 355 352 350 347 344 347 351 6 23 37 50 60 71 84 87 87 90 92 96 99 104 146 195 222 209 189 182 182 179 177 177 189 203 201 219 222 230 235
7 339 314 300 305 293 305 27 7 353 347 345 349 347 343 343 353 1 17 31 43 52 58 67 79 86 82 82 85 81 89 122 167 205 209 192 175 168 171 174 167 165 169 186 193 213 222 229 232
7 2 333 299 291 304 315 43 11 344 340 341 343 343 343 351 5 12 18 32 44 46 44 50 60 68 68 70 67 63 39 42 240 228 203 185 174 173 171 166 175 169 174 179 183 210 209 227 233
22 360 335 330 338 328 316 16 359 344 347 349 348 350 353 7 19 23 22 29 33 36 35 32 29 38 34 47 62 66 235 226 228 211 191 182 176 179 182 165 181 168 180 189 196 202 210 223 236